An Xiu Shan — BRQV — position and weather

sailwx.info

Track history (hours):
 
Tides and Currents Weather Stations Pressure Air Temp Water Temp Dewpoint Dewpoint Depression Visibility Wind Speed Wind Dir Waves Ship Positions

An Xiu Shan

Last reported at 2014-Oct-25 00:21 UTC. Time now 2014-Oct-26 00:20 UTC.
Position N 30°25' E 123°00'.

Length 199 m; draft 7.4 m.

Type: Cargo ship. MMSI: 413195000.

Date/timePositionNaut miles runAvg speedWind from/ knotsBaromVisibWave heightAir tempDewpointWater temp
2014-Oct-25 00:21N 30°25' E 123°00'2111.3
2014-Oct-24 22:31N 30°05' E 122°58'1310.8
2014-Oct-24 21:20N 29°53' E 122°52'910.9
2014-Oct-24 20:30N 29°44' E 122°50'1010.6
2014-Oct-24 19:33N 29°34' E 122°47'2411.2
2014-Oct-24 17:23N 29°11' E 122°39'1012.1
2014-Oct-24 16:32N 29°02' E 122°34'1512.3
2014-Oct-24 15:17N 28°47' E 122°28'24410.5
2014-Oct-23 16:06N 25°22' E 119°60'6 8.3
2014-Oct-23 15:23N 25°17' E 119°56'19 8.8
2014-Oct-23 13:11N 25°03' E 119°42'47 9.7
2014-Oct-23 08:24N 24°38' E 118°59'17 9.0
2014-Oct-23 06:32N 24°27' E 118°45'8 7.5
2014-Oct-23 05:28N 24°21' E 118°40'6 6.6
2014-Oct-23 04:33N 24°17' E 118°35'7 6.7
2014-Oct-23 03:33N 24°12' E 118°29'8 7.2
2014-Oct-23 02:28N 24°07' E 118°23'7 7.6
2014-Oct-23 01:32N 24°02' E 118°18'10 8.8
2014-Oct-23 00:23N 23°56' E 118°09'9 9.3
2014-Oct-22 23:25N 23°51' E 118°01'8 8.9
2014-Oct-22 22:32N 23°46' E 117°54'81 7.3
2014-Oct-22 11:32N 22°52' E 116°49'16910.6
2014-Oct-21 19:32N 21°58' E 113°55'1612.0
2014-Oct-21 18:10N 22°13' E 113°49'6 9.7
2014-Oct-21 17:33N 22°19' E 113°48'9 8.9
2014-Oct-21 16:33N 22°28' E 113°45'1211.8
2014-Oct-21 15:33N 22°39' E 113°41'2 0.8
2014-Oct-21 13:11N 22°41' E 113°40'0 0.0
2014-Oct-21 12:26N 22°41' E 113°40'0 0.0
2014-Oct-21 10:11N 22°41' E 113°40'0 0.0
2014-Oct-21 09:29N 22°41' E 113°40'0 0.0
2014-Oct-21 08:23N 22°41' E 113°40'0 0.0
2014-Oct-21 05:23N 22°41' E 113°40'0 0.0
2014-Oct-20 13:29N 22°41' E 113°40'0 0.0
2014-Oct-19 10:30N 22°41' E 113°40'0 0.0
2014-Oct-19 06:32N 22°41' E 113°40'0 0.0
2014-Oct-19 05:14N 22°41' E 113°40'0 0.0
2014-Oct-19 01:31N 22°41' E 113°40'6 5.2
2014-Oct-19 00:20N 22°35' E 113°43'810.8
2014-Oct-18 23:33N 22°27' E 113°45'1010.3
2014-Oct-18 22:33N 22°17' E 113°48'10 9.8
2014-Oct-18 21:33N 22°07' E 113°51'7 7.0
2014-Oct-18 20:31N 22°00' E 113°53'17810.9
2014-Oct-18 04:10N 22°55' E 116°56'6611.1
2014-Oct-17 22:12N 23°34' E 117°54'710.5
2014-Oct-17 21:31N 23°38' E 118°00'1210.5
2014-Oct-17 20:25N 23°47' E 118°09'1010.9
2014-Oct-17 19:33N 23°54' E 118°16'1210.9
2014-Oct-17 18:29N 24°01' E 118°26'40711.2
2014-Oct-16 06:15N 29°35' E 122°47'  
Track history (hours):
 
Tides and Currents Weather Stations Pressure Air Temp Water Temp Dewpoint Dewpoint Depression Visibility Wind Speed Wind Dir Waves Ship Positions

An Xiu Shan

Last reported at 2014-Oct-25 00:21 UTC. Time now 2014-Oct-26 00:20 UTC.
Position N 30°25' E 123°00'.

Length 199 m; draft 7.4 m.

Type: Cargo ship. MMSI: 413195000.

Date/timePositionNaut miles runAvg speedWind from/ knotsBaromVisibWave heightAir tempDewpointWater temp
2014-Oct-25 00:21N 30°25' E 123°00'2111.3
2014-Oct-24 22:31N 30°05' E 122°58'1310.8
2014-Oct-24 21:20N 29°53' E 122°52'910.9
2014-Oct-24 20:30N 29°44' E 122°50'1010.6
2014-Oct-24 19:33N 29°34' E 122°47'2411.2
2014-Oct-24 17:23N 29°11' E 122°39'1012.1
2014-Oct-24 16:32N 29°02' E 122°34'1512.3
2014-Oct-24 15:17N 28°47' E 122°28'24410.5
2014-Oct-23 16:06N 25°22' E 119°60'6 8.3
2014-Oct-23 15:23N 25°17' E 119°56'19 8.8
2014-Oct-23 13:11N 25°03' E 119°42'47 9.7
2014-Oct-23 08:24N 24°38' E 118°59'17 9.0
2014-Oct-23 06:32N 24°27' E 118°45'8 7.5
2014-Oct-23 05:28N 24°21' E 118°40'6 6.6
2014-Oct-23 04:33N 24°17' E 118°35'7 6.7
2014-Oct-23 03:33N 24°12' E 118°29'8 7.2
2014-Oct-23 02:28N 24°07' E 118°23'7 7.6
2014-Oct-23 01:32N 24°02' E 118°18'10 8.8
2014-Oct-23 00:23N 23°56' E 118°09'9 9.3
2014-Oct-22 23:25N 23°51' E 118°01'8 8.9
2014-Oct-22 22:32N 23°46' E 117°54'81 7.3
2014-Oct-22 11:32N 22°52' E 116°49'16910.6
2014-Oct-21 19:32N 21°58' E 113°55'1612.0
2014-Oct-21 18:10N 22°13' E 113°49'6 9.7
2014-Oct-21 17:33N 22°19' E 113°48'9 8.9
2014-Oct-21 16:33N 22°28' E 113°45'1211.8
2014-Oct-21 15:33N 22°39' E 113°41'2 0.8
2014-Oct-21 13:11N 22°41' E 113°40'0 0.0
2014-Oct-21 12:26N 22°41' E 113°40'0 0.0
2014-Oct-21 10:11N 22°41' E 113°40'0 0.0
2014-Oct-21 09:29N 22°41' E 113°40'0 0.0
2014-Oct-21 08:23N 22°41' E 113°40'0 0.0
2014-Oct-21 05:23N 22°41' E 113°40'0 0.0
2014-Oct-20 13:29N 22°41' E 113°40'0 0.0
2014-Oct-19 10:30N 22°41' E 113°40'0 0.0
2014-Oct-19 06:32N 22°41' E 113°40'0 0.0
2014-Oct-19 05:14N 22°41' E 113°40'0 0.0
2014-Oct-19 01:31N 22°41' E 113°40'6 5.2
2014-Oct-19 00:20N 22°35' E 113°43'810.8
2014-Oct-18 23:33N 22°27' E 113°45'1010.3
2014-Oct-18 22:33N 22°17' E 113°48'10 9.8
2014-Oct-18 21:33N 22°07' E 113°51'7 7.0
2014-Oct-18 20:31N 22°00' E 113°53'17810.9
2014-Oct-18 04:10N 22°55' E 116°56'6611.1
2014-Oct-17 22:12N 23°34' E 117°54'710.5
2014-Oct-17 21:31N 23°38' E 118°00'1210.5
2014-Oct-17 20:25N 23°47' E 118°09'1010.9
2014-Oct-17 19:33N 23°54' E 118°16'1210.9
2014-Oct-17 18:29N 24°01' E 118°26'40711.2
2014-Oct-16 06:15N 29°35' E 122°47'  

Dump ship's entire track history